Back to catalog

CZ-6A DEB

AliveSSO
NORAD 58434·DEBRIS·🇨🇳 China

Launched Nov 11, 2022 from Taiyuan Satellite Launch Center

Loading…

Next Passes (next 24 hours)

TLE

AgingSource: Space-Track

Epoch: Sep 8, 2026, 20:49 UTC

1 58434U 22151AJC 26251.86784138  .00000105  00000-0  52274-4 0  9996
2 58434  98.7016 294.2072 0105020 171.7498 188.5443 14.32673600174656

Track CZ-6A DEB in real time with AllMySat

Download on the App Store